[[{"header":{"parameterUnit":"m.s-1","parameterCategory":1,"la1":30.2991,"la2":30.254,"lo1":-89.0895,"lo2":-89.0444,"dy":0.0017,"dx":0.0017,"nx":28,"ny":28,"refTime":"2024-03-08T09:00:00:Z","depth":0,"parameterNumber":2,"parameterNumberName":"U-component_of_WINDS"},"data":[0,0,0,0,0,0,0,0,0,0,0,0,0,0,0,0,0,0,0,0,0,0,0,0,0,0,0,0,0,0,0,0,0,0,0,0,0,0,0,0,0,0,0,0,0,0,0,0,0,0,0,0,0,0,0,0,0,0,-2.718,-2.7181,0,-2.7269,-2.727,-2.7271,-2.7269,-2.7268,-2.7267,-2.7266,-2.7358,-2.7361,-2.7365,0,0,0,0,0,0,0,0,0,0,0,0,0,-2.7009,-2.7013,-2.718,-2.7181,-2.7182,-2.7269,-2.727,-2.7271,-2.7269,-2.7268,-2.7266,-2.7265,-2.7356,-2.7361,-2.7365,0,0,0,0,0,0,0,0,0,0,0,0,0,-2.7089,-2.7014,-2.718,-2.7192,-2.7194,-2.7268,-2.727,-2.7271,-2.727,-2.7268,-2.7266,-2.7264,-2.7355,-2.736,-2.7365,-2.7435,0,0,-2.7382,-2.7384,0,0,0,0,0,0,0,0,-2.7085,-2.7096,-2.7189,-2.7191,-2.7193,-2.7256,-2.7243,-2.7326,-2.727,-2.7241,-2.7265,-2.7263,-2.7325,-2.7333,-2.7354,-2.7439,-2.7443,-2.7382,-2.7386,-2.7388,-2.7389,0,0,0,0,0,0,0,-2.7079,-2.7092,-2.7215,-2.719,-2.7193,-2.7193,-2.7202,-2.7259,-2.7292,-2.7243,-2.7243,-2.7254,-2.7326,-2.7348,-2.7356,-2.7444,-2.7382,-2.7387,-2.739,-2.7392,-2.7589,-2.7591,0,0,0,0,0,0,-2.7071,-2.7087,-2.7212,-2.7218,-2.7134,-2.7197,-2.7208,-2.7238,-2.7291,-2.7298,-2.7255,-2.7253,-2.734,-2.735,-2.7359,-2.7442,-2.7388,-2.7393,-2.7396,-2.7587,-2.759,-2.7592,0,0,0,0,0,0,-2.7068,-2.7082,-2.7209,-2.7153,-2.7169,-2.7202,-2.7236,-2.724,-2.7263,-2.7301,-2.7306,-2.7272,-2.7339,-2.7351,-2.7415,-2.7445,-2.7395,-2.74,-2.7585,-2.7588,-2.7591,-2.7609,0,0,0,0,0,0,-2.7063,-2.7081,-2.7107,-2.7153,-2.7172,-2.7263,-2.7238,-2.7243,-2.7272,-2.727,-2.7318,-2.7324,-2.7339,-2.7407,-2.7421,-2.7452,-2.7404,-2.7582,-2.7586,-2.759,-2.7606,-2.7613,-2.7618,0,0,0,0,0,-2.7057,-2.711,-2.7109,-2.7124,-2.7205,-2.7265,-2.7276,-2.7291,-2.7274,-2.7301,-2.7325,-2.7322,-2.744,-2.7414,-2.7429,-2.7462,-2.7581,-2.7585,-2.759,-2.7604,-2.7612,-2.7618,0,0,0,0,0,0,-2.7067,-2.7116,-2.7115,-2.7185,-2.7221,-2.7265,-2.7299,-2.73,-2.7341,-2.7338,-2.7356,-2.7367,-2.7431,-2.7453,-2.7423,-2.7531,-2.7508,-2.7516,-2.7514,-2.7522,-2.7527,-2.752,-2.7409,0,0,0,0,0,-2.7078,-2.7122,-2.7162,-2.722,-2.7238,-2.7265,-2.7292,-2.7301,-2.7339,-2.7354,-2.7383,-2.7421,-2.7466,-2.7495,-2.7539,-2.761,-2.762,-2.764,-2.7646,-2.7651,-2.7657,-2.7695,-2.7704,-2.7607,-2.7607,-2.7607,0,0,-2.71,-2.7132,-2.7159,-2.7223,-2.7251,-2.7297,-2.7278,-2.7327,-2.7361,-2.7362,-2.7423,-2.7446,-2.7489,-2.7556,-2.7587,-2.7577,-2.7686,-2.7657,-2.766,-2.7664,-2.77,-2.771,-2.7718,-2.761,-2.761,-2.7609,0,0,-2.7162,-2.7191,-2.7242,-2.7271,-2.7314,-2.7332,-2.7345,-2.7389,-2.7403,-2.7465,-2.7467,-2.7508,-2.7586,-2.7616,-2.7641,-2.7715,-2.7713,-2.7729,-2.7759,-2.7796,-2.7804,-2.7811,-2.7835,-2.7844,-2.7735,-2.7735,-2.7735,0,-2.7184,-2.7251,-2.7268,-2.7316,-2.7344,-2.7347,-2.7398,-2.7425,-2.7482,-2.7501,-2.7488,-2.7585,-2.7615,-2.7688,-2.7706,-2.7728,-2.7741,-2.7723,-2.7801,-2.7808,-2.7815,-2.7839,-2.7848,-2.7737,-2.7737,-2.7736,-2.7736,0,-2.7275,-2.7322,-2.7358,-2.7411,-2.7443,-2.7492,-2.7516,-2.7546,-2.7553,-2.7572,-2.7635,-2.767,-2.7721,-2.7739,-2.7746,-2.7814,-2.7806,-2.7797,-2.7774,-2.7825,-2.7848,-2.7857,-2.7739,-2.7738,-2.7738,-2.7737,0,0,-2.7346,-2.7407,-2.7419,-2.7443,-2.7491,-2.7528,-2.7578,-2.7627,-2.7652,-2.7691,-2.7732,-2.7798,-2.779,-2.7819,-2.783,-2.7863,-2.7917,-2.785,-2.7851,-2.786,-2.7991,-2.7996,-2.8006,-2.7917,-2.7919,-2.792,-2.7987,0,-2.7412,-2.7499,-2.7515,-2.7591,-2.7634,-2.7638,-2.7681,-2.7715,-2.7735,-2.7775,-2.7797,-2.7842,-2.7829,-2.7847,-2.7879,-2.7903,-2.7943,-2.7899,-2.7955,-2.7956,-2.7941,-2.8018,-2.8023,-2.8085,-2.7996,-2.7998,-2.7999,0,-2.7501,-2.754,-2.762,-2.7662,-2.7681,-2.7719,-2.7765,-2.7803,-2.7842,-2.7854,-2.7886,-2.7893,-2.7944,-2.792,-2.7991,-2.7961,-2.7985,-2.8,-2.8003,-2.8007,-2.7979,-2.8023,-2.8105,-2.8113,-2.8013,-2.8012,-2.8011,0,-2.7541,-2.7616,-2.7673,-2.7693,-2.7744,-2.777,-2.7793,-2.783,-2.7858,-2.7898,-2.7916,-2.7963,-2.7987,-2.8023,-2.8042,-2.8023,-2.8111,-2.8089,-2.8121,-2.8121,-2.8138,-2.8136,-2.8223,-2.8157,-2.8157,-2.8157,-2.8157,0,-2.7612,-2.7661,-2.7691,-2.7726,-2.7781,-2.7799,-2.7852,-2.7874,-2.7907,-2.7946,-2.7954,-2.799,-2.8014,-2.8054,-2.807,-2.8125,-2.8137,-2.8148,-2.8151,-2.8146,-2.8144,-2.816,-2.8156,-2.8159,-2.8159,-2.8158,-2.8158,0,-2.7667,-2.7689,-2.7751,-2.7794,-2.7806,-2.7844,-2.788,-2.7914,-2.7934,-2.7983,-2.7996,-2.8027,-2.8075,-2.8098,-2.8157,-2.8168,-2.823,-2.8231,-2.8216,-2.8217,-2.8247,-2.8243,-2.8346,-2.836,-2.8286,-2.8287,-2.8287,0,-2.7709,-2.7746,-2.7793,-2.7819,-2.7842,-2.7885,-2.7913,-2.7933,-2.7962,-2.8009,-2.8037,-2.8085,-2.8124,-2.82,-2.8228,-2.8273,-2.8274,-2.8307,-2.8281,-2.8274,-2.8272,-2.8269,-2.8272,-2.8311,-2.8312,-2.8313,-2.8313,0,-2.7782,-2.7791,-2.7832,-2.7876,-2.7909,-2.7945,-2.7981,-2.8002,-2.8027,-2.806,-2.8108,-2.8138,-2.8198,-2.8245,-2.8293,-2.8316,-2.8318,-2.8321,-2.8331,-2.8325,-2.8314,-2.8318,-2.8227,-2.8318,-2.8318,-2.8317,-2.8317,-2.8317,-2.7831,-2.7863,-2.7901,-2.7945,-2.7973,-2.8006,-2.804,-2.8063,-2.8104,-2.8153,-2.8163,-2.8214,-2.8252,-2.8315,-2.834,-2.838,-2.8373,-2.8387,-2.8391,-2.8393,-2.8394,-2.8309,-2.8389,-2.8389,-2.8389,-2.8389,-2.8389,0,-2.7902,-2.7926,-2.7967,-2.8016,-2.805,-2.805,-2.8089,-2.8118,-2.8162,-2.8197,-2.8235,-2.829,-2.8336,-2.8368,-2.8414,-2.844,-2.8442,-2.8451,-2.8448,-2.8453,-2.8399,-2.8385,-2.8448,-2.8448,-2.8448,-2.8448,-2.8448,-2.8448,-2.7944,-2.7998,-2.8011,-2.808,-2.8104,-2.8153,-2.8175,-2.8205,-2.8233,-2.8294,-2.8331,-2.8352,-2.8385,-2.8434,-2.8475,-2.8483,-2.8499,-2.8508,-2.8516,-2.8464,-2.8457,-2.8451,-2.8438,-2.8512,-2.8512,-2.8567,-2.8567,-2.8568]},{"header":{"parameterUnit":"m.s-1","parameterCategory":1,"la1":30.2991,"la2":30.254,"lo1":-89.0895,"lo2":-89.0444,"dy":0.0017,"dx":0.0017,"nx":28,"ny":28,"refTime":"2024-03-08T09:00:00:Z","depth":0,"parameterNumber":3,"parameterNumberName":"V-component_of_WINDS"},"data":[0,0,0,0,0,0,0,0,0,0,0,0,0,0,0,0,0,0,0,0,0,0,0,0,0,0,0,0,0,0,0,0,0,0,0,0,0,0,0,0,0,0,0,0,0,0,0,0,0,0,0,0,0,0,0,0,0,0,-0.0133,-0.0133,0,-0.0048,-0.0047,-0.0046,-0.0028,-0.0029,-0.0029,-0.003,0.0068,0.0071,0.0075,0,0,0,0,0,0,0,0,0,0,0,0,0,-0.027,-0.0267,-0.0134,-0.0132,-0.0131,-0.0048,-0.0047,-0.0046,-0.0028,-0.0029,-0.0029,-0.003,0.0067,0.0071,0.0075,0,0,0,0,0,0,0,0,0,0,0,0,0,-0.02,-0.0266,-0.0134,-0.0113,-0.011,-0.0049,-0.0047,-0.0046,-0.0028,-0.0029,-0.003,-0.0031,0.0066,0.0071,0.0075,0.0125,0,0,0.009,0.0092,0,0,0,0,0,0,0,0,-0.0204,-0.0195,-0.0117,-0.0114,-0.0111,-0.005,-0.0059,0.0012,-0.0027,-0.0058,-0.003,-0.0031,0.003,0.0038,0.0057,0.0129,0.0134,0.0091,0.0093,0.0096,0.0097,0,0,0,0,0,0,0,-0.0209,-0.0198,-0.0099,-0.0116,-0.0112,-0.0104,-0.0095,-0.0046,-0.0009,-0.0056,-0.0054,-0.0045,0.0032,0.0052,0.0059,0.0135,0.009,0.0095,0.0098,0.01,0.0257,0.0258,0,0,0,0,0,0,-0.0219,-0.0202,-0.0102,-0.0097,-0.0161,-0.0101,-0.0091,-0.0068,-0.001,-0.0002,-0.0044,-0.0045,0.0044,0.0053,0.0063,0.0127,0.0095,0.01,0.0103,0.0256,0.0257,0.0259,0,0,0,0,0,0,-0.0222,-0.021,-0.0106,-0.0149,-0.0135,-0.0097,-0.0072,-0.0066,-0.0046,-0.0001,0.0006,-0.0031,0.0044,0.0056,0.0109,0.013,0.0102,0.0107,0.0254,0.0256,0.0258,0.0254,0,0,0,0,0,0,-0.0226,-0.0211,-0.0195,-0.0149,-0.0133,-0.0064,-0.0071,-0.0064,-0.0039,-0.0039,0.0013,0.0021,0.0044,0.0102,0.0114,0.0136,0.011,0.0252,0.0255,0.0257,0.0252,0.0255,0.0258,0,0,0,0,0,-0.0231,-0.0198,-0.0194,-0.0182,-0.0112,-0.0063,-0.0053,-0.003,-0.0038,-0.0019,0.0011,0.0019,0.0125,0.0107,0.0121,0.0145,0.0251,0.0254,0.0257,0.0251,0.0254,0.0258,0,0,0,0,0,0,-0.0239,-0.0191,-0.0187,-0.0139,-0.0105,-0.006,-0.0036,-0.0028,0.0011,0.0011,0.0041,0.0052,0.0105,0.013,0.0109,0.0198,0.0189,0.0194,0.0179,0.0183,0.0186,0.018,0.0114,0,0,0,0,0,-0.0236,-0.0203,-0.0162,-0.0123,-0.0107,-0.0074,-0.0052,-0.0037,0.0,0.0016,0.0049,0.0088,0.0131,0.0158,0.02,0.0256,0.0269,0.0279,0.0282,0.0284,0.029,0.0325,0.033,0.0268,0.0268,0.0268,0,0,-0.0227,-0.0197,-0.0178,-0.0124,-0.0096,-0.0059,-0.0062,-0.0023,0.0006,0.0023,0.0075,0.0101,0.0147,0.0202,0.0228,0.0225,0.031,0.0288,0.0289,0.0294,0.0328,0.0334,0.0339,0.027,0.027,0.0269,0,0,-0.0193,-0.0169,-0.0133,-0.0106,-0.0065,-0.0043,-0.0034,0.001,0.0027,0.0079,0.0093,0.013,0.0202,0.0235,0.0261,0.0309,0.032,0.0322,0.0338,0.0371,0.0376,0.0381,0.0401,0.0407,0.0327,0.0327,0.0327,0,-0.0187,-0.0134,-0.0115,-0.0076,-0.0051,-0.0038,0.0001,0.0028,0.0082,0.0101,0.0095,0.0187,0.0219,0.0284,0.0295,0.0315,0.0329,0.0317,0.0373,0.0378,0.0383,0.0402,0.0409,0.0327,0.0327,0.0327,0.0327,0,-0.0127,-0.0091,-0.0066,-0.0018,0.001,0.0049,0.0078,0.0104,0.0117,0.014,0.0195,0.0234,0.0284,0.0301,0.0314,0.0369,0.0366,0.0366,0.0358,0.0388,0.0407,0.0415,0.0327,0.0327,0.0327,0.0327,0,0,-0.0095,-0.0037,-0.0028,-0.0005,0.0042,0.0073,0.0114,0.016,0.0183,0.0221,0.0258,0.0319,0.032,0.035,0.0368,0.0397,0.0436,0.0395,0.0396,0.0403,0.0502,0.0503,0.0511,0.0443,0.0444,0.0445,0.0499,0,-0.0054,0.0015,0.0035,0.0095,0.0132,0.0146,0.0182,0.0217,0.024,0.0278,0.0305,0.0349,0.0345,0.0364,0.0393,0.0425,0.0457,0.0421,0.0483,0.0484,0.0472,0.052,0.0521,0.057,0.0507,0.0508,0.0509,0,0.0004,0.0039,0.0102,0.0145,0.0162,0.0193,0.0238,0.0272,0.0314,0.0329,0.0362,0.0378,0.0426,0.0413,0.0482,0.0457,0.0484,0.0503,0.0506,0.0514,0.05,0.0533,0.0586,0.0594,0.052,0.0519,0.0518,0,0.0024,0.0087,0.0134,0.0153,0.0204,0.0227,0.025,0.029,0.0317,0.0358,0.0377,0.0424,0.045,0.0488,0.0518,0.0506,0.0585,0.0575,0.0603,0.0603,0.0621,0.062,0.0681,0.0634,0.0634,0.0634,0.0634,0,0.0069,0.0108,0.0143,0.0172,0.0217,0.0241,0.0287,0.0311,0.0347,0.0384,0.04,0.0435,0.0471,0.0512,0.0536,0.0591,0.0603,0.062,0.0626,0.0619,0.0618,0.0639,0.0637,0.0636,0.0635,0.0635,0.0634,0,0.01,0.0125,0.0177,0.022,0.0233,0.0264,0.0304,0.0335,0.0358,0.0405,0.0418,0.0457,0.0507,0.0539,0.0603,0.062,0.0681,0.0685,0.0665,0.0669,0.0697,0.0695,0.0776,0.0789,0.073,0.0731,0.0731,0,0.0128,0.0158,0.0205,0.0229,0.0251,0.029,0.0317,0.0343,0.0372,0.0422,0.0448,0.0497,0.0539,0.0618,0.0655,0.0705,0.0713,0.0738,0.0721,0.0714,0.0717,0.0715,0.072,0.0741,0.0742,0.0742,0.0742,0,0.0177,0.0188,0.0225,0.0266,0.0298,0.0333,0.0368,0.0388,0.0421,0.0453,0.0502,0.0534,0.0598,0.0649,0.0703,0.0731,0.0745,0.0747,0.0757,0.0752,0.074,0.075,0.0676,0.0746,0.0745,0.0745,0.0745,0.0745,0.021,0.0238,0.0275,0.0316,0.0345,0.0378,0.0409,0.0436,0.0476,0.0528,0.0542,0.0594,0.0638,0.0711,0.074,0.0785,0.0782,0.0796,0.08,0.0804,0.0805,0.0731,0.0795,0.0794,0.0794,0.0794,0.0794,0,0.0262,0.0286,0.0324,0.0371,0.0405,0.0409,0.0449,0.0478,0.0522,0.056,0.06,0.0658,0.0708,0.0748,0.0801,0.0829,0.0837,0.0842,0.0842,0.0849,0.0803,0.079,0.0835,0.0835,0.0835,0.0835,0.0835,0.0835,0.0293,0.0341,0.0357,0.0421,0.0446,0.0494,0.0517,0.0549,0.058,0.0643,0.0683,0.0707,0.0748,0.0803,0.0851,0.0862,0.0882,0.0887,0.09,0.0856,0.0852,0.0848,0.0836,0.089,0.0891,0.0943,0.0944,0.0944]}]]